Regional Weather Roundup
Issued by NWS

Home | Current Version | Previous Version | Graphics & Text | Print | Product List | Glossary Off
Versions: 1 2 3 4 5 6 7 8 9 10 11 12 13 14 15 16 17 18 19 20 21 22 23 24 25 26 27 28 29 30 31 32 33 34 35 36 37 38 39 40 41 42 43 44 45 46 47 48 49 50

000
ASUS43 KLSX 051607
RWRMO

WEATHER SUMMARY FOR MISSOURI
NATIONAL WEATHER SERVICE SPRINGFIELD MO
1000 AM CST THU MAR 05 2015

NOTE: "FAIR" INDICATES FEW OR NO CLOUDS BELOW 12,000 FEET WITH NO
       SIGNIFICANT WEATHER AND/OR OBSTRUCTIONS TO VISIBILITY.
       CURRENT SKY AND/OR WEATHER CONDITIONS ARE NOT AVAILABLE FOR
       CHILLICOTHE AND FARMINGTON.

MOZ001>031-035>038-043-044-053-054-051700-
...NORTHERN AND WESTERN MISSOURI...

CITY           SKY/WX    TMP DP  RH WIND       PRES   REMARKS
KANSAS CTY INT SUNNY     18  -1  43 N8        30.59R WCI   8
KANSAS C DTWN  SUNNY     20  -3  36 N6        30.61S WCI  12
LEE`S SUMMIT   SUNNY     18  -3  39 N10       30.59R WCI   6
ST JOSEPH      SUNNY     15  -1  49 N5        30.62S WCI   8
CHILLICOTHE      N/A     15   0  51 VRB5      30.61R WCI   8
KIRKSVILLE     MOSUNNY   14   3  61 N9        30.57  WCI   2

$$
MOZ066>068-077>081-088>096-101>105-051700-
...SOUTHWEST MISSOURI...

CITY           SKY/WX    TMP DP  RH WIND       PRES   REMARKS
SPRINGFIELD    SUNNY     22   7  52 N9        30.54R WCI  12
JOPLIN         SUNNY     24  11  57 VRB6      30.58R WCI  17

$$
MOZ032>034-039>042-045>050-055>058-069>072-051700-
...CENTRAL MISSOURI...

CITY           SKY/WX    TMP DP  RH WIND       PRES   REMARKS
COLUMBIA       MOSUNNY   20   9  62 NW8       30.56R WCI  10
JEFFERSON CITY MOSUNNY   19   7  59 NW8       30.59R WCI   9
ROLLA          SUNNY     20   7  57 NW16      30.50R WCI   6
SEDALIA        SUNNY     18   2  49 N8        30.58R WCI   8
WHITEMAN AFB   SUNNY     18   0  44 NW12      30.57  WCI   6
WARRENSBURG    SUNNY     19   0  42 N10       30.60S WCI   8
OSAGE BEACH    SUNNY     21   1  42 W7        30.55S WCI  13

$$
MOZ051-052-059>065-051700-
...EAST CENTRAL MISSOURI...

CITY           SKY/WX    TMP DP  RH WIND       PRES   REMARKS
ST LOUIS INTL  MOSUNNY   20   4  50 N10       30.56R WCI   9
SPIRIT OF STL  MOSUNNY   21   6  52 N7        30.56R WCI  12
ST CHARLES     PTSUNNY   19   6  57 N6        30.57R WCI  11

$$
MOZ072>076-082>087-097>100-106>115-051700-
...SOUTH CENTRAL AND SOUTHEAST MISSOURI...

CITY           SKY/WX    TMP DP  RH WIND       PRES   REMARKS
CAPE GIRARDEAU SUNNY     22  10  60 N12       30.52R WCI  10
FARMINGTON     SUNNY     21   9  58 N9        30.50R WCI  11
POPLAR BLUFF   MIX PCPN  25   6  44 NE8       30.51R WCI  16
WEST PLAINS    SUNNY     24   4  42 N12G21    30.49R WCI  13

$$



USA.gov is the U.S. government's official web portal to all federal, state and local government web resources and services.